Location: Ertinghausen
(51.6624°N, 9.7874°E)
Time: 10:25:36
(UTC+00:00)

USA 267 - Pass Details

Date: 23 May 2024
Orbit: 1100 x 1107 km, 123.0° (Epoch: 21 May)

Event Time Altitude Azimuth Distance (km) Brightness Sun altitude
Rises 00:14:42 0° 60° (ENE) 3,923 6.8 -16.6°
Reaches altitude 10° 00:17:11 10° 61° (ENE) 2,963 6.1 -16.5°
Maximum altitude 00:23:45 89° 152° (SSE) 1,107 3.2 -16.3°
Drops below altitude 10° 00:30:18 10° 243° (WSW) 2,956 5.1 -16.0°
Enters shadow 00:30:21 10° 243° (WSW) 2,973 5.1 -16.0°
